Regional Weather Roundup
Issued by NWS

Home | Current Version | Previous Version | Text Only | Print | Product List | Glossary Off
Versions: 1 2 3 4 5 6 7 8 9 10 11 12 13 14 15 16 17 18 19 20 21 22 23 24 25 26 27 28 29 30 31 32 33 34 35 36 37 38 39 40 41 42 43 44 45 46 47 48 49 50

000
ASUS45 KBOU 180607
RWRCO

WEATHER ROUNDUP FOR COLORADO
NATIONAL WEATHER SERVICE DENVER/BOULDER CO
1100 PM MST TUE JAN 17 2017

NOTE: "FAIR" INDICATES FEW OR NO CLOUDS BELOW 12000 FEET WITH NO
SIGNIFICANT WEATHER AND/OR OBSTRUCTIONS TO VISIBILITY.

COZ001>005-013-030-031-180700-
...NORTHWEST COLORADO...

CITY           SKY/WX    TMP DP  RH WIND       PRES   REMARKS
CRAIG          FOG       11   8  88 CALM      30.20F VSB 1/4
HAYDEN         FAIR      10   7  85 E8        30.17S WCI  -1
MEEKER         FAIR      12   9  87 NE5       30.18F WCI   4
MOUNT WERNER   NOT AVBL
STEAMBOAT SPGS   N/A     11   9  92 CALM      30.17F VSB 1/4
WALDEN           N/A    N/A N/A N/A CALM      30.16S
$$

COZ006>008-011-180700-
...WEST CENTRAL VALLEYS...

CITY           SKY/WX    TMP DP  RH WIND       PRES   REMARKS
GRAND JUNCTION FAIR      28  27  96 CALM      30.17S
MONTROSE       CLOUDY    35  30  82 CALM      30.18S
EAGLE          CLEAR     16  12  86 CALM      30.22R
RIFLE          FAIR      24  21  88 SE5       30.19R WCI  18
DELTA          CLOUDY    38  30  72 E6        30.18R
NUCLA          FAIR      32  27  80 CALM      30.20R
$$

COZ017>023-064>068-180700-
...SOUTHWEST COLORADO...

CITY           SKY/WX    TMP DP  RH WIND       PRES   REMARKS
DURANGO        FAIR      32  29  88 CALM      30.12S
CORTEZ         FAIR      30  29  96 NE6       30.14S WCI  24
PAGOSA SPRINGS CLOUDY    34  33  96 CALM      30.13S
TELLURIDE      CLOUDY    25  23  91 CALM      30.16S
WOLF CREEK PAS   N/A     18  18 100 N5        30.18F WCI  11
$$

COZ009-010-012-014-032>034-037-058>063-180700-
...CENTRAL COLORADO...

CITY           SKY/WX    TMP DP  RH WIND       PRES   REMARKS
ASPEN          FAIR      14  11  87 SW7       30.15S WCI   4
BUENA VISTA    FAIR      10   5  80 W7        30.12S WCI  -1
COPPER MTN     FAIR      28 -33   6 E3        30.15S
BERTHOUD PASS  NOT AVBL
COTTONWOOD PAS FAIR      32   9  37 CALM      30.12S
GUNNISON       CLOUDY    21  19  92 E3        30.19S
KREMMLING      CLOUDY    12   9  85 CALM      30.22S
LEADVILLE      FAIR       9   4  80 VRB3      30.13S
MONARCH PASS   MOCLDY    14  12  92 MISG      30.25R
SALIDA         FAIR      28  21  76 NW10      30.20R WCI  18
SUNLIGHT       FAIR      19  16  86 CALM      30.20S
WILKERSON PASS NOT AVBL
$$

COZ069>075-180700-
...SAN LUIS VALLEY/SANGRE DE CRISTO MOUNTAINS...

CITY           SKY/WX    TMP DP  RH WIND       PRES   REMARKS
ALAMOSA        CLOUDY    23  21  92 CALM      30.13S FOG
LA VETA PASS   FAIR      21  19  93 NE16      30.12S WCI   7
SAGUACHE       FOG       23  21  93 NW5       30.15S VSB 1   WCI  17
$$

COZ035-036-038>040-180700-
...NORTHERN COLORADO FRONT RANGE...

CITY           SKY/WX    TMP DP  RH WIND       PRES   REMARKS
DENVER INTL AP FAIR      27  19  72 S12       30.00S WCI  17
DMNS CITY PARK   N/A     29  21  72 SE7       30.01S WCI  21
AURORA         PTCLDY    30  21  70 S12       30.01S WCI  20
FRONT RANGE AP FAIR      27  18  69 S7        30.01F WCI  19
ERIE MUNI ARPT FAIR      17  15  93 CALM      30.01S
BOULDER MUN AP FAIR      30  23  74 CALM      30.00R
CENTENNIAL     FAIR      25  18  74 S7        30.01F WCI  17
BROOMFIELD     FAIR      32  21  64 SE5       30.01R WCI  27
FORT COLLINS   FAIR      28  23  80 CALM      30.01S
LONGMONT       FAIR      20  15  81 CALM      30.02S
$$

COZ041-046-047-076>085-087-088-180700-
...PIKES PEAK/PALMER DIVIDE AND SOUTHERN FOOTHILLS...

CITY           SKY/WX    TMP DP  RH WIND       PRES   REMARKS
COLO. SPRINGS  FAIR      23  13  65 NE9       30.05F WCI  13
A. F. ACADEMY  FAIR      21  14  73 N10       30.05S WCI  10
SCHRIEVER AFB  NOT AVBL
ELLICOTT       FAIR     N/A N/A N/A SE3       30.04S
FALCON         FAIR      22  12  65 NW3       30.06S
FORT CARSON    CLEAR     32  21  64 W2        30.06F
LIMON          FOG       16  15  96 N6        30.05S VSB 1/4 WCI   7
MONUMENT HILL  FAIR      23   7  50 S7        30.05F WCI  15
TRINIDAD       FAIR      26  24  92 W12       30.06S WCI  16
$$

COZ042>045-048>051-090-091-180700-
...NORTHEAST COLORADO...

CITY           SKY/WX    TMP DP  RH WIND       PRES   REMARKS
GREELEY ARPT   FAIR      23  21  92 NW5       30.02S WCI  17
AKRON          FAIR      28  24  85 SW12      30.01R WCI  18
BURLINGTON     FAIR      31  28  89 SW9       30.05F WCI  23
WRAY           NOT AVBL
STERLING       FAIR      23  23 100 SW10      30.01R WCI  12
HOLYOKE        FAIR      21  19  93 S12       30.03R WCI   9
FORT MORGAN    FAIR      21  19  93 SW6       30.03R WCI  14
$$

COZ086-089-092>099-180700-
...SOUTHEAST COLORADO...

CITY           SKY/WX    TMP DP  RH WIND       PRES   REMARKS
PUEBLO         FOG       27  26  96 S3        30.07S VSB 1/4
LA JUNTA       FOG       22  20  92 S6        30.06S VSB 1/2 WCI  14
LAMAR          FAIR      22  19  89 SW10      30.06F WCI  11
SPRINGFIELD      N/A     33  31  92 S12       30.06S WCI  24
$$



USA.gov is the U.S. government's official web portal to all federal, state and local government web resources and services.